Time,TemperatureF,DewpointF,PressureIn,WindDirection,WindDirectionDegrees,WindSpeedMPH,WindSpeedGustMPH,Humidity,HourlyPrecipIn,Conditions,Clouds,dailyrainin,SolarRadiationWatts/m^2,SoftwareType,DateUTC
2013-05-25 00:00:00,41.0,35.0,-100.00,NW,315,5.0,-999.0,80,-99.99,,,-99.99,0.000000,,2013-05-25 04:00:00,
2013-05-25 00:33:00,41.0,35.0,-100.00,NW,315,5.0,-999.0,80,-99.99,,,-99.99,0.000000,,2013-05-25 04:33:00,
2013-05-25 00:43:00,41.0,35.0,-100.00,NW,315,5.0,-999.0,80,-99.99,,,-99.99,0.000000,,2013-05-25 04:43:00,
2013-05-25 00:53:00,41.0,35.0,-100.00,NW,315,5.0,-999.0,80,-99.99,,,-99.99,0.000000,,2013-05-25 04:53:00,
2013-05-25 01:00:00,39.0,35.0,-100.00,NW,315,4.0,-999.0,86,-99.99,,,-99.99,0.000000,,2013-05-25 05:00:00,
2013-05-25 01:32:00,39.0,35.0,-100.00,NW,315,4.0,-999.0,86,-99.99,,,-99.99,0.000000,,2013-05-25 05:32:00,
2013-05-25 01:43:00,39.0,35.0,-100.00,NW,315,4.0,-999.0,86,-99.99,,,-99.99,0.000000,,2013-05-25 05:43:00,
2013-05-25 01:52:00,39.0,35.0,-100.00,NW,315,4.0,-999.0,86,-99.99,,,-99.99,0.000000,,2013-05-25 05:52:00,
2013-05-25 03:00:00,37.0,35.0,-100.00,NW,315,1.0,-999.0,91,-99.99,,,-99.99,0.000000,,2013-05-25 07:00:00,
2013-05-25 03:32:00,37.0,35.0,-100.00,NW,315,1.0,-999.0,91,-99.99,,,-99.99,0.000000,,2013-05-25 07:32:00,
2013-05-25 03:42:00,37.0,35.0,-100.00,NW,315,1.0,-999.0,91,-99.99,,,-99.99,0.000000,,2013-05-25 07:42:00,
2013-05-25 03:52:00,37.0,35.0,-100.00,NW,315,1.0,-999.0,91,-99.99,,,-99.99,0.000000,,2013-05-25 07:52:00,
2013-05-25 04:00:00,37.0,35.0,-100.00,SE,135,0.0,-999.0,92,-99.99,,,-99.99,0.000000,,2013-05-25 08:00:00,
2013-05-25 04:32:00,37.0,35.0,-100.00,SE,135,0.0,-999.0,92,-99.99,,,-99.99,0.000000,,2013-05-25 08:32:00,
2013-05-25 04:42:00,37.0,35.0,-100.00,SE,135,0.0,-999.0,92,-99.99,,,-99.99,0.000000,,2013-05-25 08:42:00,
2013-05-25 04:52:00,37.0,35.0,-100.00,SE,135,0.0,-999.0,92,-99.99,,,-99.99,0.000000,,2013-05-25 08:52:00,
2013-05-25 05:00:00,38.0,36.0,-100.00,East,90,3.0,-999.0,93,-99.99,,,-99.99,0.000000,,2013-05-25 09:00:00,
2013-05-25 05:33:00,38.0,36.0,-100.00,East,90,3.0,-999.0,93,-99.99,,,-99.99,0.000000,,2013-05-25 09:33:00,
2013-05-25 05:43:00,38.0,36.0,-100.00,East,90,3.0,-999.0,93,-99.99,,,-99.99,0.000000,,2013-05-25 09:43:00,
2013-05-25 05:53:00,38.0,36.0,-100.00,East,90,3.0,-999.0,93,-99.99,,,-99.99,0.000000,,2013-05-25 09:53:00,
2013-05-25 06:00:00,39.0,37.0,-100.00,East,90,2.0,-999.0,92,-99.99,,,-99.99,0.000000,,2013-05-25 10:00:00,
2013-05-25 06:33:00,39.0,37.0,-100.00,East,90,2.0,-999.0,92,-99.99,,,-99.99,0.000000,,2013-05-25 10:33:00,
2013-05-25 06:42:00,39.0,37.0,-100.00,East,90,2.0,-999.0,92,-99.99,,,-99.99,0.000000,,2013-05-25 10:42:00,
2013-05-25 06:52:00,39.0,37.0,-100.00,East,90,2.0,-999.0,92,-99.99,,,-99.99,0.000000,,2013-05-25 10:52:00,
2013-05-25 07:00:00,38.0,36.0,-100.00,SW,225,0.0,-999.0,92,-99.99,,,-99.99,22.040001,,2013-05-25 11:00:00,
2013-05-25 07:32:00,38.0,36.0,-100.00,SW,225,0.0,-999.0,92,-99.99,,,-99.99,22.040001,,2013-05-25 11:32:00,
2013-05-25 07:42:00,38.0,36.0,-100.00,SW,225,0.0,-999.0,92,-99.99,,,-99.99,22.040001,,2013-05-25 11:42:00,
2013-05-25 07:52:00,38.0,36.0,-100.00,SW,225,0.0,-999.0,92,-99.99,,,-99.99,22.040001,,2013-05-25 11:52:00,
2013-05-25 08:00:00,42.0,39.0,-100.00,SW,225,1.0,-999.0,89,-99.99,,,-99.99,155.440002,,2013-05-25 12:00:00,
2013-05-25 08:32:00,42.0,39.0,-100.00,SW,225,1.0,-999.0,89,-99.99,,,-99.99,155.440002,,2013-05-25 12:32:00,
2013-05-25 08:42:00,42.0,39.0,-100.00,SW,225,1.0,-999.0,89,-99.99,,,-99.99,155.440002,,2013-05-25 12:42:00,
2013-05-25 08:52:00,42.0,39.0,-100.00,SW,225,1.0,-999.0,89,-99.99,,,-99.99,155.440002,,2013-05-25 12:52:00,
2013-05-25 09:00:00,48.0,42.0,-100.00,WSW,247,2.0,-999.0,79,-99.99,,,-99.99,240.119995,,2013-05-25 13:00:00,
2013-05-25 09:32:00,48.0,42.0,-100.00,WSW,247,2.0,-999.0,79,-99.99,,,-99.99,240.119995,,2013-05-25 13:32:00,
2013-05-25 09:42:00,48.0,42.0,-100.00,WSW,247,2.0,-999.0,79,-99.99,,,-99.99,240.119995,,2013-05-25 13:42:00,
2013-05-25 09:52:00,48.0,42.0,-100.00,WSW,247,2.0,-999.0,79,-99.99,,,-99.99,240.119995,,2013-05-25 13:52:00,
2013-05-25 10:00:00,50.0,43.0,-100.00,WNW,292,3.0,-999.0,75,-99.99,,,-99.99,410.640015,,2013-05-25 14:00:00,
2013-05-25 10:32:00,50.0,43.0,-100.00,WNW,292,3.0,-999.0,75,-99.99,,,-99.99,410.640015,,2013-05-25 14:32:00,
2013-05-25 10:42:00,50.0,43.0,-100.00,WNW,292,3.0,-999.0,75,-99.99,,,-99.99,410.640015,,2013-05-25 14:42:00,
2013-05-25 10:52:00,50.0,43.0,-100.00,WNW,292,3.0,-999.0,75,-99.99,,,-99.99,410.640015,,2013-05-25 14:52:00,
2013-05-25 11:00:00,56.0,42.0,-100.00,WNW,292,2.0,-999.0,59,-99.99,,,-99.99,585.799988,,2013-05-25 15:00:00,
2013-05-25 11:33:00,56.0,42.0,-100.00,WNW,292,2.0,-999.0,59,-99.99,,,-99.99,585.799988,,2013-05-25 15:33:00,
2013-05-25 11:43:00,56.0,42.0,-100.00,WNW,292,2.0,-999.0,59,-99.99,,,-99.99,585.799988,,2013-05-25 15:43:00,
2013-05-25 11:53:00,56.0,42.0,-100.00,WNW,292,2.0,-999.0,59,-99.99,,,-99.99,585.799988,,2013-05-25 15:53:00,
2013-05-25 12:00:00,59.0,37.0,-100.00,North,0,3.0,-999.0,44,-99.99,,,-99.99,625.239990,,2013-05-25 16:00:00,
2013-05-25 12:33:00,59.0,37.0,-100.00,North,0,3.0,-999.0,44,-99.99,,,-99.99,625.239990,,2013-05-25 16:33:00,
2013-05-25 12:42:00,59.0,37.0,-100.00,North,0,3.0,-999.0,44,-99.99,,,-99.99,625.239990,,2013-05-25 16:42:00,
2013-05-25 12:52:00,59.0,37.0,-100.00,North,0,3.0,-999.0,44,-99.99,,,-99.99,625.239990,,2013-05-25 16:52:00,
2013-05-25 13:00:00,61.0,32.0,-100.00,NNE,22,5.0,-999.0,34,-99.99,,,-99.99,675.119995,,2013-05-25 17:00:00,
2013-05-25 13:33:00,61.0,32.0,-100.00,NNE,22,5.0,-999.0,34,-99.99,,,-99.99,675.119995,,2013-05-25 17:33:00,
2013-05-25 13:42:00,61.0,32.0,-100.00,NNE,22,5.0,-999.0,34,-99.99,,,-99.99,675.119995,,2013-05-25 17:42:00,
2013-05-25 13:52:00,61.0,32.0,-100.00,NNE,22,5.0,-999.0,34,-99.99,,,-99.99,675.119995,,2013-05-25 17:52:00,
2013-05-25 14:00:00,62.0,36.0,-100.00,North,0,3.0,-999.0,38,-99.99,,,-99.99,672.799988,,2013-05-25 18:00:00,
2013-05-25 14:32:00,62.0,36.0,-100.00,North,0,3.0,-999.0,38,-99.99,,,-99.99,672.799988,,2013-05-25 18:32:00,
2013-05-25 14:42:00,62.0,36.0,-100.00,North,0,3.0,-999.0,38,-99.99,,,-99.99,672.799988,,2013-05-25 18:42:00,
2013-05-25 14:52:00,62.0,36.0,-100.00,North,0,3.0,-999.0,38,-99.99,,,-99.99,672.799988,,2013-05-25 18:52:00,
2013-05-25 15:00:00,63.0,36.0,-100.00,NNW,337,3.0,-999.0,36,-99.99,,,-99.99,603.200012,,2013-05-25 19:00:00,
2013-05-25 15:32:00,63.0,36.0,-100.00,NNW,337,3.0,-999.0,36,-99.99,,,-99.99,603.200012,,2013-05-25 19:32:00,
2013-05-25 15:42:00,63.0,36.0,-100.00,NNW,337,3.0,-999.0,36,-99.99,,,-99.99,603.200012,,2013-05-25 19:42:00,
2013-05-25 15:52:00,63.0,36.0,-100.00,NNW,337,3.0,-999.0,36,-99.99,,,-99.99,603.200012,,2013-05-25 19:52:00,
2013-05-25 16:00:00,65.0,35.0,-100.00,NE,45,4.0,-999.0,33,-99.99,,,-99.99,617.119995,,2013-05-25 20:00:00,
2013-05-25 16:32:00,65.0,35.0,-100.00,NE,45,4.0,-999.0,33,-99.99,,,-99.99,617.119995,,2013-05-25 20:32:00,
2013-05-25 16:42:00,65.0,35.0,-100.00,NE,45,4.0,-999.0,33,-99.99,,,-99.99,617.119995,,2013-05-25 20:42:00,
2013-05-25 16:52:00,65.0,35.0,-100.00,NE,45,4.0,-999.0,33,-99.99,,,-99.99,617.119995,,2013-05-25 20:52:00,
2013-05-25 17:00:00,66.0,35.0,-100.00,NNE,22,5.0,-999.0,32,-99.99,,,-99.99,638.000000,,2013-05-25 21:00:00,
2013-05-25 17:33:00,66.0,35.0,-100.00,NNE,22,5.0,-999.0,32,-99.99,,,-99.99,638.000000,,2013-05-25 21:33:00,
2013-05-25 17:43:00,66.0,35.0,-100.00,NNE,22,5.0,-999.0,32,-99.99,,,-99.99,638.000000,,2013-05-25 21:43:00,
2013-05-25 17:53:00,66.0,35.0,-100.00,NNE,22,5.0,-999.0,32,-99.99,,,-99.99,638.000000,,2013-05-25 21:53:00,
2013-05-25 18:00:00,66.0,33.0,-100.00,North,0,4.0,-999.0,29,-99.99,,,-99.99,546.359985,,2013-05-25 22:00:00,
2013-05-25 18:33:00,66.0,33.0,-100.00,North,0,4.0,-999.0,29,-99.99,,,-99.99,546.359985,,2013-05-25 22:33:00,
2013-05-25 18:42:00,66.0,33.0,-100.00,North,0,4.0,-999.0,29,-99.99,,,-99.99,546.359985,,2013-05-25 22:42:00,
2013-05-25 18:52:00,66.0,33.0,-100.00,North,0,4.0,-999.0,29,-99.99,,,-99.99,546.359985,,2013-05-25 22:52:00,
2013-05-25 19:00:00,65.0,35.0,-100.00,North,0,5.0,-999.0,33,-99.99,,,-99.99,242.440002,,2013-05-25 23:00:00,
2013-05-25 19:32:00,65.0,35.0,-100.00,North,0,5.0,-999.0,33,-99.99,,,-99.99,242.440002,,2013-05-25 23:32:00,
2013-05-25 19:42:00,65.0,35.0,-100.00,North,0,5.0,-999.0,33,-99.99,,,-99.99,242.440002,,2013-05-25 23:42:00,
2013-05-25 19:53:00,65.0,35.0,-100.00,North,0,5.0,-999.0,33,-99.99,,,-99.99,242.440002,,2013-05-25 23:53:00,
2013-05-25 21:00:00,57.0,41.0,-100.00,NW,315,4.0,-999.0,55,-99.99,,,-99.99,38.279999,,2013-05-26 01:00:00,
2013-05-25 21:32:00,57.0,41.0,-100.00,NW,315,4.0,-999.0,55,-99.99,,,-99.99,38.279999,,2013-05-26 01:32:00,
2013-05-25 21:42:00,57.0,41.0,-100.00,NW,315,4.0,-999.0,55,-99.99,,,-99.99,38.279999,,2013-05-26 01:42:00,
2013-05-25 21:53:00,57.0,41.0,-100.00,NW,315,4.0,-999.0,55,-99.99,,,-99.99,38.279999,,2013-05-26 01:53:00,
2013-05-25 22:00:00,54.0,40.0,-100.00,NNW,337,3.0,-999.0,59,-99.99,,,-99.99,1.160000,,2013-05-26 02:00:00,
2013-05-25 22:32:00,54.0,40.0,-100.00,NNW,337,3.0,-999.0,59,-99.99,,,-99.99,1.160000,,2013-05-26 02:32:00,
2013-05-25 22:42:00,54.0,40.0,-100.00,NNW,337,3.0,-999.0,59,-99.99,,,-99.99,1.160000,,2013-05-26 02:42:00,
2013-05-25 22:52:00,54.0,40.0,-100.00,NNW,337,3.0,-999.0,59,-99.99,,,-99.99,1.160000,,2013-05-26 02:52:00,
2013-05-25 23:00:00,51.0,40.0,-100.00,NNW,337,2.0,-999.0,66,-99.99,,,-99.99,0.000000,,2013-05-26 03:00:00,
2013-05-25 23:33:00,51.0,40.0,-100.00,NNW,337,2.0,-999.0,66,-99.99,,,-99.99,0.000000,,2013-05-26 03:33:00,
2013-05-25 23:43:00,51.0,40.0,-100.00,NNW,337,2.0,-999.0,66,-99.99,,,-99.99,0.000000,,2013-05-26 03:43:00,
2013-05-25 23:53:00,51.0,40.0,-100.00,NNW,337,2.0,-999.0,66,-99.99,,,-99.99,0.000000,,2013-05-26 03:53:00,